World > North America > United States > Ohio

Baltimore, Ohio Regional Weather

Lat: 39.85N, Lon: 82.61W
Wx Zone: OHZ065Web Search

Helpful Tip: Type the letters wx in the search engine next time you need to find us.

Feedback


°F Click to change Baltimore hourly weather to Imperial units.Click to change Baltimore hourly weather to Metric units. °C
Baltimore Weather Map
UTC Time: 5/17/2021, 20:00
Your Time:

Baltimore, OH Regional Weather

Expires:202105172000;;269711
ASUS41 KCLE 171912
RWRCLE
OHIO REGIONAL WEATHER ROUNDUP
NATIONAL WEATHER SERVICE WILMINGTON, OH
300 PM EDT MON MAY 17 2021

NOTE: "FAIR" INDICATES FEW OR NO CLOUDS BELOW 12,000 FEET WITH NO
SIGNIFICANT WEATHER AND/OR OBSTRUCTIONS TO VISIBILITY.


OHZ036-037-039>041-045>050-054>059-063>069-073>076-082>088-172000-
  CENTRAL AND SOUTHEAST OHIO
  
CITY           SKY/WX    TMP DP  RH WIND       PRES   REMARKS
COLUMBUS       CLOUDY    65  51  60 SE7       30.26F                  
OSU AIRPORT    CLOUDY    65  50  58 SE10      30.27S                  
BOLTON FIELD   PTSUNNY   61  54  77 S12G17    30.26F                  
RICKENBACK AFB PTSUNNY   61  52  73 SE7       30.26F                  
NEWARK         FAIR      69  53  56 SW8       30.26S                  
MARION         FAIR      71  49  45 S12       30.26S                  
LANCASTER      LGT RAIN  62  53  72 S7        30.27F                  
ZANESVILLE     FAIR      70  47  43 VRB3      30.26S                  
NEW PHILLY     FAIR      74  42  31 VRB6      30.26F                  
$$
  

SKY/WX - Weather  TMP - Temperature  DP - Dew Point  RH - Relative Humidity
WIND - Wind Direction/Speed PRES - Barometric Pressure VSB - Visibility
WCI - Wind Chill Index E13G22 Wind - East Wind 13 mph/Gusts of 22 mph